This demonstration page uses our WeatherBlox Daily Observations layout. Learn more.

Left ArrowRight Arrow

36.19886, -115.1175

Hourly Observations for May 20, 2020

Temp ( °F °C ) Dew Point ( °F °C ) Humidity (%) Winds ( mph kmh ) Pressure ( in mb ) Visibility ( mi km ) Precip ( " mm )
12:53 am 00:53 Clear 62 16.7 33 0.6 34 34 NNW 13 20 29.92 1013 10 16 N/A
1:53 am 01:53 Clear 63 17.2 32 undefined 31 31 NW 14 22 29.92 1013 10 16 N/A
2:53 am 02:53 Clear 62 16.7 33 0.6 34 34 WNW 13 20 29.93 1014 10 16 N/A
3:53 am 03:53 Clear 62 16.7 33 0.6 34 34 VRB 6 9 29.95 1014 10 16 N/A
4:53 am 04:53 Clear 62 16.7 33 0.6 34 34 WNW 9 15 29.96 1014 10 16 N/A
5:53 am 05:53 Sunny 61 16.1 33 0.6 35 35 NNW 6 9 29.97 1015 10 16 N/A
6:53 am 06:53 Sunny 63 17.2 34 1.1 34 34 NW 8 13 29.98 1015 10 16 N/A
7:53 am 07:53 Sunny 67 19.4 33 0.6 28 28 WNW 10 17 30.00 1016 10 16 N/A
8:53 am 08:53 Sunny 69 20.6 32 undefined 25 25 NW 18 30 30.01 1016 10 16 N/A
9:53 am 09:53 Sunny 72 22.2 30 -1.1 21 21 NW 15 24 30.01 1016 10 16 N/A
10:53 am 10:53 Sunny 74 23.3 29 -1.7 19 19 NNW 13 20 30.02 1017 10 16 N/A
11:53 am 11:53 Mostly Sunny 73 22.8 29 -1.7 19 19 VRB 7 11 30.01 1016 10 16 N/A
12:53 pm 12:53 Mostly Sunny 75 23.9 28 -2.2 18 18 NW 7 11 30.01 1016 10 16 N/A
1:53 pm 13:53 Mostly Sunny 76 24.4 29 -1.7 18 18 WSW 8 13 29.98 1015 10 16 N/A
2:53 pm 14:53 Sunny 78 25.6 28 -2.2 16 16 W 10 17 29.96 1015 10 16 N/A
3:53 pm 15:53 Sunny 80 26.7 28 -2.2 15 15 VRB 3 6 29.94 1014 10 16 N/A
4:53 pm 16:53 Sunny 78 25.6 27 -2.8 15 15 N N/A 29.92 1013 10 16 N/A
5:53 pm 17:53 Sunny 79 26.1 26 -3.3 14 14 N N/A 29.91 1013 10 16 N/A
6:53 pm 18:53 Sunny 79 26.1 26 -3.3 14 14 N N/A 29.91 1013 10 16 N/A
7:53 pm 19:53 Clear 78 25.6 21 -6.1 12 12 NNW 7 11 29.91 1013 10 16 N/A
8:53 pm 20:53 Clear 76 24.4 24 -4.4 14 14 NW 12 19 29.91 1013 10 16 N/A
9:53 pm 21:53 Clear 74 23.3 23 -5 15 15 WNW 8 13 29.93 1013 10 16 N/A
10:53 pm 22:53 Clear 72 22.2 24 -4.4 17 17 N 9 15 29.93 1014 10 16 N/A
11:53 pm 23:53 Clear 70 21.1 22 -5.6 16 16 NNW 8 13 29.93 1014 10 16 N/A

Powered by AerisWeather